Starlink 11618

operational
NORAD ID: 63185 Int'l Des: 2025-048 Owner: SPXS Country: US Constellation: starlink
LEOCIRCULAR

Über Starlink 11618

Beschreibung wird geladen...

Live-Position

3D-Globus wird geladen...

Nächste Überflüge

Höhenverlauf

Altitude vs Time

uPlot chart will show altitude changes over time

Zweizeiliger Elementsatz

1 63185U 25048C 25303.59935631 .00354309 00000-0 26396-2 0 9998
2 63185 42.9992 23.8338 0001251 359.1321 0.9544 15.70921878 38056
Epoch: 30. Okt. 2025 • Age: 16 hours

Aktueller Status

Höhe 357.0 km
Geschwindigkeit 7.70 km/s
Subsatellitenpunkt 36.18°N, 16.54°E
Startdatum 13. März 2025
Alter 0.6 years
Typ internet

Technische Details

Klassifizierung Payload
Masse 960.00 kg
Trockenmasse 910.00 kg
Gesamtmasse 960.00 kg
Länge 0.30 m
Durchmesser 4.10 m
Spannweite 29.00 m
Form Box + pan
Hersteller SPXS
Bus-Typ Starlink V2MD
Phasenstatus In Orbit
Besitzer/Staat SPXS/US

Große Konstellationen

Loading constellations...